Location: Three Oaks Observatory
(31.1535°N, 83.5955°W)
Time: 18:02:36
(UTC-05:00)

FALCONSAT 3 - Pass Details

Date: 24 October 2019
Orbit: 454 x 457 km, 35.4° (Epoch: 12 November)

Event Time Altitude Azimuth Distance (km) Brightness Sun altitude
Exits shadow 07:00:58 13° 290° (WNW) 1,389 ? -9.8°
Maximum altitude 07:04:05 81° 17° (NNE) 460 ? -9.1°
Drops below altitude 10° 07:07:41 10° 106° (ESE) 1,575 ? -8.4°
Sets 07:09:51 0° 107° (ESE) 2,445 ? -7.9°
